Find Starlink 36953

NORAD ID: 68010 Int'l Des: 2026-039 Owner: SPXS Country: US Constellation: starlink operational
LEOCIRCULAR

实时位置

正在加载3D地球...

关于 Starlink 36953

正在加载描述...

即将过境

Passes for default location (London). Set your location on the main map for personalized predictions.

高度历史

Loading altitude history...

两行轨道根数

1 68010U 26039AA 26106.27503221 .00004661 00000-0 17877-3 0 9992
2 68010 43.0008 196.4709 0001185 272.4699 87.6017 15.27584879 7453
Epoch: Apr 16, 2026 • Age: 11 hours

当前状态

高度 485.8 km
速度 7.63 km/s
星下点 37.95°N, 158.76°W
发射日期 Feb 27, 2026
运行时间 0.1 years
类型 internet

技术详情

分类 Payload
质量 575.00 kg
干质量 530.00 kg
总质量 575.00 kg
长度 0.30 m
直径 4.10 m
跨度 29.00 m
形状 Box + pan
制造商 SPXS
平台类型 Starlink V2MO
阶段状态 In Orbit
所有者/国家 SPXS/US

Most Searched